STARLINK-32037 (60283 NORAD) Tracking and Keplerian Element Data

This shows tracking and keplerian element data for the satellite.

Feedback or suggestion? Click here.




ElementValue
Catalog60283
NameSTARLINK-32037
Epoch Orbit1301
Epoch Day286.67214296
Epoch Year2024
RAAN275.4492
Inclination53.1603
Eccentricity0.0001175
Argument of Perigee84.8256
Mean Anonmoly275.2879
Mean Motion15.30192589
Decay Rate-2.63E-06
L11 60283U 24132F 24286.67214296 -.00000263 00000+0 32595-5 0 9990
L22 60283 53.1603 275.4492 0001175 84.8256 275.2879 15.30192589 13017



Live tracking and technical data element details for STARLINK-32037 (NORAD 60283). STARLINK-32037 can be tracked NOW for your location showing map with azimuth and elevation plus other details from your city location.







IsCatalogInMostPopularTable: catalog: 60283, numindb: 12
Update: records affected: 1



GetName: 60283 STARLINK-32037

Hit Count: updated at: Thu, 23 Jan 2025 14:54:00 GMT